"Pseudo-MPEC" for 1993-058D

Created 2016 Jul 6 14:44:43 UT using Find_Orb

Astrometry:
1993-058D    tC2016 06 16.01777 17 24 31.63 -10 49 21.2          13.5 R      Y00
1993-058D    tC2016 06 16.01873 17 25 15.24 -10 47 16.0          13.2 R      Y00
1993-058D    tC2016 06 16.01958 17 25 53.57 -10 45 25.6          13.3 R      Y00
1993-058D    tC2016 07 03.99248 16 26 38.13 -11 57 42.4          14.0 R      Y00
1993-058D    tC2016 07 03.99336 16 27 08.13 -11 56 26.0          13.6 R      Y00
1993-058D    tC2016 07 03.99421 16 27 37.14 -11 55 11.5          13.5 R      Y00

Station data:
(Y00) SONEAR Observatory, Oliveira (S20.71513 W44.78496)  Brazil.   Observers
    C. Jacques, E. Pimentel, J. Barros.  Measurer C. Jacques.  0.28-m f/2.2
    astrograph + CCD.

Orbital elements:  1993-058D
   Perigee 2016 Jul 3.775266 +/- 0.00184 TT = 18:36:23 (JD 2457573.275266)
Epoch 2016 Jul  4.0 TT = JDT 2457573.5                        Find_Orb
M 170.120702 +/- 1.3                (J2000 equatorial)
n 756.986718724 +/- 0.00736         Peri.  122.746237 +/- 0.29
a 25736.21442 +/- 0.167             Node   304.744066 +/- 0.035
e   0.73915226 +/- 0.00068          Incl.   15.212739 +/- 0.023
P 684.81m/0.476d           H 30.9   G  0.15   U  9.5  
q 6713.233142 +/- 17.5    Q 44759.19570 +/- 17.5
From 6 observations 2016 June 16-July 3; mean residual 1".269
Residuals in arcseconds: 
160616 Y00 1.34- .484-    160616 Y00 1.24- .155-    160703 Y00 .266- .085-    
160616 Y00 2.36+ .599+    160703 Y00 2.35+ .626+    160703 Y00 1.88- .521-    

Ephemerides (geocentric):
Date (UTC) HH   RA              Dec         delta   r     elong  mag " sig PA
---- -- -- --  ------------   ------------  ------ ------ -----  --- ---- ---
2016 07 04 00  16 25 16.849   -13 02 34.11   44679 1.0170 143.6 14.8  313  83
2016 07 04 01  16 53 52.962   -11 58 35.66   44285 1.0170 149.6 14.6  341  80
2016 07 04 02  17 24 04.027   -10 38 40.62   41939 1.0170 155.4 14.3  292  78
2016 07 04 03  17 59 19.881   -08 50 42.11   37455 1.0170 160.9 13.9  114  71
2016 07 04 04  18 47 10.878   -06 03 05.29   30396 1.0169 163.1 13.3  409  79
2016 07 04 05  20 15 13.014   -00 15 16.10   19798 1.0169 150.0 12.8 2679  75
2016 07 04 06  04 32 30.369   +12 46 32.18    6709 1.0167  35.1 16?? 574'  98
2016 07 04 07  12 42 04.664   -13 56 28.56   19769 1.0168  92.6 14.6 3236  96
2016 07 04 08  14 16 03.969   -15 12 34.23   30377 1.0168 114.3 14.8  791  88
2016 07 04 09  15 06 34.463   -14 53 22.74   37442 1.0169 125.8 14.9  130  80
2016 07 04 10  15 43 09.693   -14 13 24.25   41932 1.0169 133.9 14.9  154  89
2016 07 04 11  16 13 56.920   -13 23 17.50   44282 1.0170 140.7 14.8  293  84
2016 07 04 12  16 42 38.495   -12 23 35.84   44679 1.0170 146.8 14.7  350  81
2016 07 04 13  17 11 49.837   -11 10 44.18   43153 1.0170 152.7 14.4  337  79
2016 07 04 14  17 44 25.208   -09 36 05.40   39588 1.0170 158.4 14.1  227  76
2016 07 04 15  18 25 35.670   -07 19 01.19   33671 1.0170 162.9 13.6   96  86
2016 07 04 16  19 30 07.922   -03 14 51.66   24711 1.0169 158.8 13.0 1199  76
2016 07 04 17  22 36 42.162   +08 46 35.64   11312 1.0168 117.5 12.5 185'  78
2016 07 04 18  11 17 52.060   -10 53 14.74   13942 1.0167  72.3 14.8 7175 100
2016 07 04 19  13 46 51.510   -15 04 39.10   26505 1.0168 107.2 14.7 1331  91
2016 07 04 20  14 48 48.698   -15 04 30.18   34869 1.0169 121.3 14.8  308  84
2016 07 04 21  15 29 40.332   -14 29 47.65   40350 1.0169 130.5 14.9   78  95
2016 07 04 22  16 02 16.300   -13 42 50.31   43552 1.0170 137.7 14.9  261  85
2016 07 04 23  16 31 29.118   -12 46 46.51   44745 1.0170 144.0 14.8  348  82
2016 07 05 00  17 00 09.463   -11 39 32.70   44020 1.0170 150.0 14.5  365  80
2016 07 05 01  17 30 54.076   -10 14 57.75   41323 1.0170 155.8 14.2  304  77
2016 07 05 02  18 07 34.953   -08 18 54.15   36434 1.0170 161.2 13.8  100  70
2016 07 05 03  18 59 11.007   -05 12 56.59   28856 1.0169 162.4 13.2  517  78
2016 07 05 04  20 43 31.200   +01 45 13.43   17479 1.0168 144.5 12.7 3640  75
2016 07 05 05  07 45 33.806   +02 08 26.69    7822 1.0167  23.6 19?? 392' 105
2016 07 05 06  13 06 19.534   -14 31 11.08   21925 1.0168  97.4 14.6 2345  94
2016 07 05 07  14 27 45.949   -15 11 28.59   31812 1.0168 116.1 14.8  571  87
2016 07 05 08  15 14 50.436   -14 44 50.01   38383 1.0169 126.7 14.9   32  58
2016 07 05 09  15 50 02.260   -14 01 21.55   42480 1.0169 134.6 14.9  214  87
2016 07 05 10  16 20 14.518   -13 08 30.78   44484 1.0170 141.2 14.8  334  83
2016 07 05 11  16 48 49.840   -12 05 52.28   44551 1.0170 147.2 14.7  379  81
2016 07 05 12  17 18 21.376   -10 49 04.98   42685 1.0170 153.1 14.4  355  79
2016 07 05 13  17 51 55.704   -09 08 09.80   38743 1.0170 158.9 14.0  228  75
2016 07 05 14  18 35 32.516   -06 38 33.95   32365 1.0170 162.9 13.5  144  83
2016 07 05 15  19 48 02.926   -01 57 43.41   22757 1.0169 156.2 12.9 1531  76
2016 07 05 16  00 17 30.459   +13 15 43.56    8723 1.0168  94.4 12.7 320'  83
2016 07 05 17  12 01 35.860   -12 44 26.36   16490 1.0167  81.8 14.7 4719  98
2016 07 05 18  14 01 35.338   -15 10 30.08   28199 1.0168 109.6 14.7  987  90
2016 07 05 19  14 58 06.042   -14 57 55.19   35998 1.0169 122.5 14.9  176  82
2016 07 05 20  15 36 58.954   -14 18 49.52   41054 1.0169 131.2 14.9  149  89
2016 07 05 21  16 08 43.841   -13 29 00.95   43894 1.0170 138.2 14.9  308  84
2016 07 05 22  16 37 39.524   -12 30 11.99   44753 1.0170 144.4 14.7  381  82
2016 07 05 23  17 06 28.599   -11 19 34.29   43695 1.0170 150.4 14.5  387  79
2016 07 06 00  17 37 53.314   -09 49 56.78   40641 1.0170 156.2 14.2  313  77
2016 07 06 01  18 16 13.601   -07 44 47.41   35333 1.0170 161.5 13.7   82  67
2016 07 06 02  19 12 25.088   -04 16 48.98   27203 1.0169 161.4 13.2  656  77
2016 07 06 03  21 20 38.702   +04 18 14.44   14993 1.0168 136.7 12.6 5212  76
2016 07 06 04  09 45 45.055   -05 56 00.18   10230 1.0167  49.2 15?? 217' 104
2016 07 06 05  13 26 40.581   -14 52 19.70   23933 1.0168 101.2 14.7 1717  92
2016 07 06 06  14 38 35.392   -15 07 53.68   33151 1.0168 117.6 14.8  389  86
2016 07 06 07  15 22 46.088   -14 35 08.94   39252 1.0169 127.6 14.9   62  99
2016 07 06 08  15 56 45.512   -13 48 29.60   42967 1.0169 135.1 14.9  269  86
2016 07 06 09  16 26 28.445   -12 52 58.33   44630 1.0170 141.6 14.8  371  83
2016 07 06 10  16 55 01.866   -11 47 18.08   44366 1.0170 147.6 14.6  405  80
2016 07 06 11  17 24 58.890   -10 26 19.63   42156 1.0170 153.5 14.3  371  78